KQ605 HKMO-HKJK

Flight info

Callsign KQ605
Flight time 0h 41m
Altitude 24000
Route NERAG1A UTIKU Q315 UTEPI UTEPI1A
Aircraft B738/M-SDE2E3FGHIRWXY/LB1

Departure

Time 2026-04-22 12:46
Airport Moi International Airport (HKMO)

Arrival

Time 2026-04-22 13:27
Airport Jomo Kenyatta International Airport (HKJK)
Time Latitude Longitude Altitude Speed Heading
2026-04-22 12:27 -4.03040 39.60329 204 ft 0 kts 120°
2026-04-22 12:30 -4.03040 39.60330 204 ft 0 kts 120°
2026-04-22 12:31 -4.03039 39.60328 204 ft 1 kts 120°
2026-04-22 12:31 -4.03032 39.60316 204 ft 3 kts 120°
2026-04-22 12:31 -4.03023 39.60299 204 ft 3 kts 120°
2026-04-22 12:31 -4.03013 39.60282 204 ft 3 kts 117°
2026-04-22 12:32 -4.03007 39.60263 204 ft 3 kts 97°
2026-04-22 12:32 -4.03015 39.60223 204 ft 3 kts 58°
2026-04-22 12:32 -4.03027 39.60208 204 ft 3 kts 43°
2026-04-22 12:34 -4.03029 39.60207 204 ft 0 kts 41°
2026-04-22 12:36 -4.03028 39.60207 204 ft 1 kts 41°
2026-04-22 12:36 -4.03018 39.60219 204 ft 0 kts 54°
2026-04-22 12:36 -4.03014 39.60222 204 ft 3 kts 25°
2026-04-22 12:36 -4.03003 39.60219 204 ft 1 kts 317°
2026-04-22 12:37 -4.03000 39.60211 204 ft 1 kts 287°
2026-04-22 12:37 -4.03000 39.60196 204 ft 5 kts 257°
2026-04-22 12:37 -4.03012 39.60146 204 ft 11 kts 264°
2026-04-22 12:38 -4.02978 39.60062 204 ft 0 kts 298°
2026-04-22 12:38 -4.02973 39.60054 204 ft 0 kts 298°
2026-04-22 12:39 -4.02965 39.60041 204 ft 8 kts 302°
2026-04-22 12:39 -4.02837 39.60032 204 ft 11 kts 320°
2026-04-22 12:39 -4.02736 39.60048 204 ft 21 kts 28°
2026-04-22 12:40 -4.02577 39.60137 204 ft 29 kts 27°
2026-04-22 12:40 -4.02403 39.60233 204 ft 27 kts 28°
2026-04-22 12:40 -4.02245 39.60320 204 ft 25 kts 29°
2026-04-22 12:40 -4.02104 39.60400 204 ft 22 kts 29°
2026-04-22 12:41 -4.01978 39.60469 204 ft 19 kts 28°
2026-04-22 12:41 -4.01869 39.60530 204 ft 17 kts 30°
2026-04-22 12:41 -4.01749 39.60599 204 ft 24 kts 31°
2026-04-22 12:41 -4.01594 39.60683 204 ft 15 kts 32°
2026-04-22 12:42 -4.01492 39.60738 204 ft 17 kts 14°
2026-04-22 12:42 -4.01394 39.60728 204 ft 14 kts 331°
2026-04-22 12:42 -4.01364 39.60707 204 ft 8 kts 313°
2026-04-22 12:42 -4.01359 39.60700 204 ft 0 kts 309°
2026-04-22 12:44 -4.01342 39.60678 204 ft 8 kts 305°
2026-04-22 12:44 -4.01339 39.60631 204 ft 6 kts 225°
2026-04-22 12:44 -4.01342 39.60628 204 ft 1 kts 232°
2026-04-22 12:45 -4.01344 39.60625 204 ft 0 kts 236°
2026-04-22 12:45 -4.01345 39.60624 204 ft 2 kts 230°
2026-04-22 12:45 -4.01514 39.60519 204 ft 65 kts 203°
2026-04-22 12:46 -4.02124 39.60193 204 ft 132 kts 213°
2026-04-22 12:46 -4.03096 39.59664 331 ft 183 kts 211°
2026-04-22 12:46 -4.04250 39.58992 1113 ft 193 kts 212°
2026-04-22 12:46 -4.05350 39.58205 2032 ft 198 kts 223°
2026-04-22 12:47 -4.06027 39.56990 2852 ft 208 kts 253°
2026-04-22 12:47 -4.05977 39.55509 3670 ft 220 kts 281°
2026-04-22 12:47 -4.05682 39.54642 4144 ft 224 kts 289°
2026-04-22 12:47 -4.05577 39.54351 4304 ft 225 kts 288°
2026-04-22 12:48 -4.05248 39.53364 4869 ft 226 kts 287°
2026-04-22 12:48 -4.04757 39.51856 5712 ft 229 kts 287°
2026-04-22 12:48 -4.04264 39.50334 6553 ft 230 kts 287°
2026-04-22 12:48 -4.03766 39.48800 7367 ft 234 kts 287°
2026-04-22 12:49 -4.03247 39.47212 8038 ft 246 kts 287°
2026-04-22 12:49 -4.02707 39.45554 8761 ft 255 kts 288°
2026-04-22 12:49 -4.02151 39.43845 9536 ft 261 kts 288°
2026-04-22 12:49 -4.01575 39.42106 10381 ft 265 kts 289°
2026-04-22 12:50 -4.00999 39.40349 11250 ft 267 kts 289°
2026-04-22 12:50 -4.00293 39.38633 12136 ft 267 kts 301°
2026-04-22 12:50 -3.99345 39.37264 12939 ft 266 kts 311°
2026-04-22 12:51 -3.98677 39.36496 13426 ft 266 kts 315°
2026-04-22 12:51 -3.97389 39.35138 14296 ft 265 kts 317°
2026-04-22 12:52 -3.96115 39.33830 15108 ft 266 kts 317°
2026-04-22 12:52 -3.94822 39.32503 15909 ft 266 kts 317°
2026-04-22 12:52 -3.93530 39.31176 16690 ft 266 kts 317°
2026-04-22 12:52 -3.92237 39.29846 17451 ft 266 kts 317°
2026-04-22 12:53 -3.90944 39.28517 18171 ft 268 kts 317°
2026-04-22 12:53 -3.89604 39.27140 18557 ft 284 kts 317°
2026-04-22 12:53 -3.88174 39.25669 18821 ft 304 kts 316°
2026-04-22 12:53 -3.86654 39.24101 19067 ft 324 kts 316°
2026-04-22 12:54 -3.85039 39.22436 19301 ft 343 kts 316°
2026-04-22 12:54 -3.83331 39.20674 19523 ft 361 kts 316°
2026-04-22 12:54 -3.81543 39.18829 19729 ft 378 kts 315°
2026-04-22 12:54 -3.79671 39.16900 19932 ft 394 kts 315°
2026-04-22 12:55 -3.77733 39.14902 20280 ft 403 kts 315°
2026-04-22 12:55 -3.75767 39.12873 20795 ft 408 kts 315°
2026-04-22 12:55 -3.73784 39.10827 21289 ft 412 kts 315°
2026-04-22 12:55 -3.71779 39.08759 21789 ft 416 kts 315°
2026-04-22 12:56 -3.69781 39.06699 22286 ft 418 kts 315°
2026-04-22 12:56 -3.67751 39.04608 22867 ft 419 kts 315°
2026-04-22 12:56 -3.65723 39.02518 23520 ft 417 kts 315°
2026-04-22 12:56 -3.63698 39.00433 24100 ft 417 kts 315°
2026-04-22 12:57 -3.61679 38.98354 24696 ft 416 kts 315°
2026-04-22 12:57 -3.59663 38.96277 25347 ft 414 kts 315°
2026-04-22 12:57 -3.57662 38.94217 25993 ft 412 kts 315°
2026-04-22 12:57 -3.55671 38.92166 26618 ft 410 kts 315°
2026-04-22 12:58 -3.53685 38.90121 27243 ft 408 kts 315°
2026-04-22 12:58 -3.51705 38.88085 27711 ft 410 kts 315°
2026-04-22 12:58 -3.49708 38.86028 27899 ft 412 kts 315°
2026-04-22 12:58 -3.47741 38.84002 27905 ft 410 kts 315°
2026-04-22 12:59 -3.45761 38.81961 27909 ft 407 kts 315°
2026-04-22 12:59 -3.43764 38.79903 27917 ft 418 kts 315°
2026-04-22 12:59 -3.41712 38.77785 27920 ft 429 kts 315°
2026-04-22 12:59 -3.39610 38.75615 27931 ft 439 kts 315°
2026-04-22 13:00 -3.37464 38.73398 27941 ft 448 kts 314°
2026-04-22 13:00 -3.35276 38.71138 27948 ft 456 kts 314°
2026-04-22 13:00 -3.33054 38.68843 27954 ft 463 kts 314°
2026-04-22 13:00 -3.30796 38.66510 27955 ft 470 kts 314°
2026-04-22 13:01 -3.28511 38.64149 27951 ft 474 kts 314°
2026-04-22 13:01 -3.26212 38.61775 27951 ft 475 kts 314°
2026-04-22 13:01 -3.23918 38.59405 27953 ft 473 kts 314°
2026-04-22 13:01 -3.21625 38.57035 27956 ft 473 kts 314°
2026-04-22 13:02 -3.19333 38.54667 27959 ft 473 kts 314°
2026-04-22 13:02 -3.17039 38.52298 27963 ft 473 kts 314°
2026-04-22 13:02 -3.14745 38.49928 27966 ft 473 kts 314°
2026-04-22 13:02 -3.12454 38.47562 27969 ft 473 kts 314°
2026-04-22 13:03 -3.10165 38.45199 27972 ft 473 kts 314°
2026-04-22 13:03 -3.07870 38.42829 27976 ft 473 kts 314°
2026-04-22 13:03 -3.05609 38.40494 27979 ft 473 kts 314°
2026-04-22 13:03 -3.03318 38.38129 27982 ft 473 kts 314°
2026-04-22 13:04 -3.01029 38.35766 27985 ft 472 kts 314°
2026-04-22 13:04 -2.99504 38.34192 27987 ft 472 kts 314°
2026-04-22 13:04 -2.98702 38.33364 27988 ft 472 kts 314°
2026-04-22 13:04 -2.96415 38.31004 27991 ft 472 kts 314°
2026-04-22 13:05 -2.94124 38.28639 27994 ft 472 kts 314°
2026-04-22 13:05 -2.91839 38.26282 27997 ft 472 kts 314°
2026-04-22 13:05 -2.89551 38.23920 28000 ft 472 kts 314°
2026-04-22 13:06 -2.84987 38.19210 28003 ft 471 kts 315°
2026-04-22 13:06 -2.80422 38.14501 28007 ft 471 kts 315°
2026-04-22 13:07 -2.75867 38.09802 28010 ft 470 kts 315°
2026-04-22 13:07 -2.71306 38.05097 28014 ft 470 kts 315°
2026-04-22 13:08 -2.66782 38.00430 28018 ft 470 kts 315°
2026-04-22 13:08 -2.62226 37.95732 28022 ft 470 kts 315°
2026-04-22 13:09 -2.57669 37.91033 28026 ft 470 kts 315°
2026-04-22 13:09 -2.53119 37.86340 28029 ft 470 kts 315°
2026-04-22 13:10 -2.48558 37.81637 28033 ft 470 kts 315°
2026-04-22 13:10 -2.44019 37.76958 27886 ft 462 kts 315°
2026-04-22 13:10 -2.41800 37.74672 27430 ft 453 kts 315°
2026-04-22 13:11 -2.39615 37.72419 26747 ft 451 kts 315°
2026-04-22 13:11 -2.37415 37.70151 25588 ft 460 kts 315°
2026-04-22 13:11 -2.35168 37.67833 24532 ft 466 kts 315°
2026-04-22 13:11 -2.32912 37.65508 23780 ft 464 kts 315°
2026-04-22 13:12 -2.30707 37.63233 23182 ft 458 kts 315°
2026-04-22 13:12 -2.28500 37.60957 22570 ft 453 kts 315°
2026-04-22 13:12 -2.26316 37.58706 21936 ft 448 kts 315°
2026-04-22 13:12 -2.24153 37.56476 21307 ft 444 kts 315°
2026-04-22 13:13 -2.22018 37.54275 20690 ft 439 kts 315°
2026-04-22 13:13 -2.19893 37.52086 20071 ft 435 kts 315°
2026-04-22 13:13 -2.17799 37.49928 19461 ft 430 kts 315°
2026-04-22 13:13 -2.15721 37.47786 18857 ft 426 kts 315°
2026-04-22 13:14 -2.13666 37.45669 18261 ft 421 kts 316°
2026-04-22 13:14 -2.11637 37.43580 17665 ft 417 kts 316°
2026-04-22 13:14 -2.09629 37.41496 17042 ft 414 kts 315°
2026-04-22 13:14 -2.07659 37.39407 16431 ft 411 kts 315°
2026-04-22 13:15 -2.05732 37.37366 15834 ft 407 kts 315°
2026-04-22 13:15 -2.03796 37.35310 15238 ft 404 kts 314°
2026-04-22 13:15 -2.01868 37.33274 14648 ft 401 kts 316°
2026-04-22 13:15 -1.99907 37.31305 14062 ft 398 kts 316°
2026-04-22 13:16 -1.97952 37.29371 13514 ft 393 kts 318°
2026-04-22 13:16 -1.95859 37.27629 12948 ft 389 kts 324°
2026-04-22 13:16 -1.93686 37.26040 12382 ft 386 kts 326°
2026-04-22 13:16 -1.91489 37.24505 11824 ft 383 kts 327°
2026-04-22 13:17 -1.89472 37.22782 11238 ft 382 kts 313°
2026-04-22 13:17 -1.87977 37.20596 10680 ft 381 kts 298°
2026-04-22 13:17 -1.86999 37.18151 10126 ft 378 kts 286°
2026-04-22 13:17 -1.86367 37.15605 9608 ft 375 kts 284°
2026-04-22 13:18 -1.85741 37.13097 9342 ft 368 kts 284°
2026-04-22 13:18 -1.85119 37.10614 9280 ft 371 kts 285°
2026-04-22 13:18 -1.84053 37.08254 9239 ft 378 kts 304°
2026-04-22 13:18 -1.82312 37.06251 9239 ft 386 kts 318°
2026-04-22 13:19 -1.80213 37.04605 9241 ft 382 kts 323°
2026-04-22 13:19 -1.78151 37.02999 9232 ft 381 kts 323°
2026-04-22 13:19 -1.76035 37.01380 9239 ft 378 kts 323°
2026-04-22 13:19 -1.73973 36.99797 9239 ft 379 kts 323°
2026-04-22 13:20 -1.71889 36.98195 9237 ft 376 kts 323°
2026-04-22 13:20 -1.69815 36.96600 9240 ft 378 kts 323°
2026-04-22 13:20 -1.67710 36.94987 9245 ft 381 kts 323°
2026-04-22 13:20 -1.65617 36.93381 9241 ft 378 kts 323°
2026-04-22 13:21 -1.63523 36.91770 9241 ft 378 kts 323°
2026-04-22 13:21 -1.61427 36.90173 9246 ft 377 kts 323°
2026-04-22 13:21 -1.59341 36.88557 9254 ft 381 kts 323°
2026-04-22 13:21 -1.57253 36.86956 9254 ft 376 kts 323°
2026-04-22 13:22 -1.55223 36.85390 9244 ft 357 kts 323°
2026-04-22 13:22 -1.53318 36.83928 9245 ft 332 kts 323°
2026-04-22 13:22 -1.51570 36.82584 9209 ft 312 kts 324°
2026-04-22 13:22 -1.49854 36.81336 9008 ft 299 kts 326°
2026-04-22 13:23 -1.48191 36.80148 8802 ft 288 kts 326°
2026-04-22 13:23 -1.46591 36.79010 8603 ft 277 kts 328°
2026-04-22 13:23 -1.44901 36.78379 8401 ft 263 kts 357°
2026-04-22 13:23 -1.43129 36.78729 8252 ft 247 kts 28°
2026-04-22 13:24 -1.41770 36.79732 7914 ft 242 kts 47°
2026-04-22 13:24 -1.40659 36.80955 7716 ft 232 kts 51°
2026-04-22 13:24 -1.40267 36.81419 7648 ft 229 kts 53°
2026-04-22 13:24 -1.39355 36.82599 7464 ft 220 kts 56°
2026-04-22 13:25 -1.38458 36.83815 7220 ft 215 kts 57°
2026-04-22 13:25 -1.37589 36.85005 6947 ft 207 kts 56°
2026-04-22 13:25 -1.37204 36.85532 6835 ft 202 kts 57°
2026-04-22 13:25 -1.36398 36.86638 6551 ft 192 kts 57°
2026-04-22 13:26 -1.35630 36.87690 6276 ft 183 kts 56°
2026-04-22 13:26 -1.34881 36.88703 5987 ft 180 kts 56°
2026-04-22 13:26 -1.34149 36.89684 5774 ft 168 kts 54°
2026-04-22 13:26 -1.33481 36.90558 5721 ft 152 kts 57°
2026-04-22 13:27 -1.32890 36.91394 5528 ft 143 kts 60°
2026-04-22 13:27 -1.32359 36.92171 5337 ft 124 kts 59°
2026-04-22 13:27 -1.31949 36.92746 5336 ft 73 kts 57°
2026-04-22 13:27 -1.31739 36.93037 5336 ft 44 kts 52°
2026-04-22 13:28 -1.31592 36.93236 5336 ft 9 kts 62°
2026-04-22 13:28 -1.31584 36.93340 5336 ft 21 kts 134°
2026-04-22 13:28 -1.31625 36.93371 5336 ft 15 kts 146°
2026-04-22 13:28 -1.31668 36.93396 5336 ft 13 kts 150°
2026-04-22 13:29 -1.31752 36.93464 5336 ft 16 kts 149°
2026-04-22 13:29 -1.31840 36.93452 5336 ft 14 kts 223°
2026-04-22 13:29 -1.31922 36.93342 5336 ft 24 kts 234°
2026-04-22 13:29 -1.32014 36.93218 5336 ft 21 kts 237°
2026-04-22 13:30 -1.32117 36.93078 5336 ft 27 kts 233°
2026-04-22 13:30 -1.32222 36.92933 5336 ft 24 kts 233°
2026-04-22 13:30 -1.32312 36.92810 5336 ft 20 kts 233°
2026-04-22 13:30 -1.32386 36.92708 5336 ft 16 kts 233°
2026-04-22 13:31 -1.32445 36.92627 5336 ft 12 kts 236°
2026-04-22 13:31 -1.32507 36.92538 5336 ft 23 kts 234°
2026-04-22 13:31 -1.32595 36.92416 5336 ft 15 kts 236°
2026-04-22 13:31 -1.32660 36.92356 5336 ft 12 kts 191°
2026-04-22 13:32 -1.32737 36.92385 5336 ft 12 kts 158°
2026-04-22 13:32 -1.32784 36.92384 5336 ft 7 kts 170°
2026-04-22 13:32 -1.32822 36.92399 5336 ft 5 kts 156°
2026-04-22 13:32 -1.32855 36.92414 5336 ft 0 kts 155°
2026-04-22 13:33 -1.32872 36.92422 5336 ft 0 kts 138°
2026-04-22 13:33 -1.32870 36.92421 5336 ft 0 kts 150°